This is the latest recevied weather packets stored in our database for station/object DB0OHL. If no packets are shown the sender has not sent any weather packets the latest 10 day(s).
| Time | Temp. | Humidity | Pressure | Rain* | Wind** | Luminosity | Snow |
|---|---|---|---|---|---|---|---|
| 1777974330 | 9.44° C | 99% | 1009.4 hPa | 0 mm | - | - | - |
| 1777973728 | 10° C | 99% | 1009.5 hPa | 0 mm | - | - | - |
| 1777973125 | 10° C | 99% | 1009.6 hPa | 0 mm | - | - | - |
| 1777972523 | 10° C | 99% | 1009.5 hPa | 0 mm | - | - | - |
| 1777971920 | 10° C | 99% | 1009.5 hPa | 0 mm | - | - | - |
| 1777971317 | 10° C | 99% | 1009.5 hPa | 0 mm | - | - | - |
| 1777970715 | 10° C | 99% | 1009.5 hPa | 0 mm | - | - | - |
| 1777970173 | 10° C | 99% | 1009.5 hPa | 0 mm | - | - | - |
| 1777969570 | 10° C | 99% | 1009.6 hPa | 0 mm | - | - | - |
| 1777968968 | 10.56° C | 99% | 1009.4 hPa | 0 mm | - | - | - |
| 1777968365 | 10.56° C | 99% | 1009.4 hPa | 0 mm | - | - | - |
| 1777967763 | 10.56° C | 99% | 1009.5 hPa | 0.25 mm | - | - | - |
| 1777967160 | 10.56° C | 99% | 1009.5 hPa | 0.51 mm | - | - | - |
| 1777966558 | 10.56° C | 99% | 1009.5 hPa | 1.27 mm | - | - | - |
| 1777965955 | 10.56° C | 99% | 1009.6 hPa | 2.03 mm | - | - | - |
| 1777965353 | 11.11° C | 99% | 1009.7 hPa | 3.05 mm | - | - | - |
| 1777964750 | 11.11° C | 99% | 1009.7 hPa | 3.56 mm | - | - | - |
| 1777964148 | 11.11° C | 99% | 1009.6 hPa | 3.56 mm | - | - | - |
| 1777963545 | 11.11° C | 99% | 1009.7 hPa | 4.32 mm | - | - | - |
| 1777962942 | 11.67° C | 99% | 1009.6 hPa | 4.32 mm | - | - | - |
| 1777962340 | 11.67° C | 99% | 1009.6 hPa | 3.3 mm | - | - | - |
| 1777961737 | 11.67° C | 99% | 1009.8 hPa | 3.05 mm | - | - | - |
| 1777961135 | 11.67° C | 99% | 1009.7 hPa | 3.81 mm | - | - | - |
| 1777960532 | 12.22° C | 99% | 1009.8 hPa | 4.83 mm | - | - | - |
| 1777959930 | 12.22° C | 99% | 1009.7 hPa | 4.83 mm | - | - | - |
* Rain latest hour (hover to see other rain measurements)
** Current wind speed in m/s (hover to see current wind gust speed)